Regional Weather Roundup
Issued by NWS

Home | Current Version | Previous Version | Text Only | Print | Product List | Glossary Off
Versions: 1 2 3 4 5 6 7 8 9 10 11 12 13 14 15 16 17 18 19 20 21 22 23 24 25 26 27 28 29 30 31 32 33 34 35 36 37 38 39 40 41 42 43 44 45 46

000
ASUS45 KBOI 251310
RWRID
WEATHER ROUNDUP FOR IDAHO
NATIONAL WEATHER SERVICE BOISE ID
600 AM MST THU DEC 25 2014

NOTE: "FAIR" INDICATES FEW OR NO CLOUDS BELOW 12000 FEET
WITH NO SIGNIFICANT WEATHER AND/OR OBSTRUCTIONS TO VISIBILITY

IDZ012-014-251400-
SOUTHWEST IDAHO


CITY           SKY/WX    TMP DP  RH WIND       PRES   REMARKS
BOISE          MOCLDY    30  24  78 NW15      29.78R WCI  19
CALDWELL       MOCLDY    32  19  59 SW17G25   29.84R WCI  21
MOUNTAIN HOME  CLOUDY    31  24  75 NW31G39   29.71R WCI  15
$$

IDZ016-017-251400-
SOUTHCENTRAL IDAHO


CITY           SKY/WX    TMP DP  RH WIND       PRES   REMARKS
JEROME         LGT SNOW  26  23  88 W28G38    29.58R VSB 3/4 WCI  10
TWIN FALLS     SNOW      27  23  85 W39G48    29.58R VSB 1/4 WCI   9
$$

IDZ019>023-251400-
SOUTHEAST IDAHO


CITY           SKY/WX    TMP DP  RH WIND       PRES   REMARKS
IDAHO FALLS    LGT SNOW  30  28  92 N18       29.43R FOG     WCI  18
POCATELLO      LGT SNOW  28  28 100 SW20      29.51R FOG     WCI  15
REXBURG        LGT SNOW  27  26  96 NE3       29.44R VSB 1
$$

IDZ006-010-011-018-031-032-251400-
CENTRAL IDAHO MOUNTAINS


CITY           SKY/WX    TMP DP  RH WIND       PRES   REMARKS
MCCALL         LGT SNOW  25  21  85 NW10      29.72R FOG     WCI  15
HAILEY         CLOUDY    30  19  64 NW18G25   29.49S WCI  18
STANLEY          N/A     23  14  68 NW12G20   29.61R WCI  12
SALMON         CLOUDY    30  21  69 NE9       29.66R WCI  22
CHALLIS        CLOUDY    28  18  66 N10       29.60R WCI  19
$$

IDZ002-004-006-007-026-251400-
NORTHERN IDAHO


CITY           SKY/WX    TMP DP  RH WIND       PRES   REMARKS
LEWISTON       CLEAR     36  26  67 W8        29.94R WCI  30
LOWELL           N/A     37  31  78 E7        29.92R WCI  32
COEUR D`ALENE  CLOUDY    28  28 100 W5        29.89R VSB 1/2 WCI  23
MULLAN PASS    CLOUDY    23  19  85 CALM      29.73R
$$



USA.gov is the U.S. government's official web portal to all federal, state and local government web resources and services.